| time (UTC) | temp F | wind direction | speed knots | gust knots | rain 1hr in | rain 24hr in | rain mn in | humidity % | barometer mb |
| 20260506044943 | 75 | 132 | 3.5 | 7.0 | 0.00 | 0.00 | 0.00 | 91 | 1006.5 |
| 20260506043946 | 75 | 107 | 2.6 | 7.0 | 0.00 | 0.00 | 0.00 | 91 | 1006.6 |
| 20260506042954 | 75 | 101 | 2.6 | 7.0 | 0.00 | 0.00 | 0.00 | 90 | 1006.6 |
| 20260506042015 | 75 | 115 | 1.7 | 7.0 | 0.00 | 0.00 | 0.00 | 90 | 1006.5 |
| 20260506041038 | 75 | 96 | 1.7 | 4.3 | 0.00 | 0.00 | 0.00 | 89 | 1006.4 |
| 20260506040053 | 76 | 105 | 0.9 | 3.5 | 0.00 | 0.00 | 0.00 | 89 | 1006.4 |
| 20260506035035 | 76 | 113 | 1.7 | 4.3 | 0.00 | 0.00 | 0.00 | 89 | 1006.6 |
| 20260506034027 | 76 | 140 | 0.9 | 4.3 | 0.00 | 0.00 | 0.00 | 89 | 1006.2 |
| 20260506033015 | 76 | 130 | 1.7 | 3.5 | 0.00 | 0.00 | 0.00 | 88 | 1005.9 |
| 20260506032017 | 76 | 119 | 0.9 | 3.5 | 0.00 | 0.00 | 0.00 | 88 | 1006.2 |
| 20260506031008 | 76 | 84 | 0.0 | 4.3 | 0.00 | 0.00 | 0.00 | 87 | 1006.1 |
| 20260506025953 | 76 | 91 | 1.7 | 4.3 | 0.00 | 0.00 | 0.00 | 87 | 1005.6 |
| 20260506024954 | 76 | 84 | 0.9 | 4.3 | 0.00 | 0.00 | 0.00 | 87 | 1005.7 |
| 20260506023948 | 77 | 89 | 0.9 | 3.5 | 0.00 | 0.00 | 0.00 | 86 | 1005.4 |
| 20260506022938 | 77 | 126 | 0.9 | 3.5 | 0.00 | 0.00 | 0.00 | 85 | 1005.4 |
| 20260506021938 | 77 | 105 | 0.9 | 3.5 | 0.00 | 0.00 | 0.00 | 84 | 1005.2 |
| 20260506020914 | 77 | 85 | 0.9 | 4.3 | 0.00 | 0.00 | 0.00 | 83 | 1005.0 |
| 20260506015846 | 78 | 113 | 0.9 | 4.3 | 0.00 | 0.00 | 0.00 | 83 | 1004.9 |
| 20260506014821 | 78 | 128 | 1.7 | 4.3 | 0.00 | 0.00 | 0.00 | 82 | 1004.7 |
| 20260506012709 | 79 | 124 | 3.5 | 7.0 | 0.00 | 0.00 | 0.00 | 81 | 1004.4 |
| 20260506011648 | 79 | 120 | 2.6 | 7.0 | 0.00 | 0.00 | 0.00 | 80 | 1004.4 |
| 20260506010631 | 80 | 122 | 3.5 | 7.0 | 0.00 | 0.00 | 0.00 | 79 | 1004.5 |
| 20260506005623 | 81 | 113 | 3.5 | 8.7 | 0.00 | 0.00 | 0.00 | 79 | 1004.3 |
| 20260506004636 | 81 | 114 | 3.5 | 10.4 | 0.00 | 0.00 | 0.00 | 78 | 1004.3 |
| 20260506003609 | 82 | 113 | 4.3 | 10.4 | 0.00 | 0.00 | 0.00 | 77 | 1004.3 |
| 20260506002601 | 82 | 103 | 3.5 | 7.8 | 0.00 | 0.00 | 0.00 | 76 | 1004.3 |
| 20260506001532 | 83 | 127 | 4.3 | 9.6 | 0.00 | 0.00 | 0.00 | 76 | 1004.3 |
| 20260506000517 | 82 | 105 | 3.5 | 10.4 | 0.00 | 0.00 | 0.00 | 77 | 1004.5 |
| 20260505235511 | 82 | 127 | 4.3 | 10.4 | 0.00 | 0.00 | 0.00 | 76 | 1004.4 |
| 20260505234524 | 83 | 121 | 4.3 | 7.8 | 0.00 | 0.00 | 0.00 | 75 | 1004.5 |
| 20260505232358 | 84 | 117 | 4.3 | 9.6 | 0.00 | 0.00 | 0.00 | 74 | 1004.2 |
| 20260505231414 | 84 | 102 | 4.3 | 8.7 | 0.00 | 0.00 | 0.00 | 74 | 1004.1 |
| 20260505230357 | 84 | 109 | 5.2 | 8.7 | 0.00 | 0.00 | 0.00 | 73 | 1003.9 |
| 20260505225349 | 85 | 118 | 2.6 | 9.6 | 0.00 | 0.00 | 0.00 | 73 | 1003.9 |
| 20260505224407 | 85 | 114 | 4.3 | 9.6 | 0.00 | 0.00 | 0.00 | 73 | 1003.9 |
| 20260505223429 | 85 | 104 | 4.3 | 8.7 | 0.00 | 0.00 | 0.00 | 72 | 1003.8 |
| 20260505222413 | 85 | 105 | 4.3 | 9.6 | 0.00 | 0.00 | 0.00 | 72 | 1003.9 |
| 20260505221351 | 85 | 133 | 4.3 | 11.3 | 0.00 | 0.00 | 0.00 | 71 | 1004.0 |
| 20260505220327 | 86 | 117 | 5.2 | 11.3 | 0.00 | 0.00 | 0.00 | 71 | 1003.8 |
| 20260505215338 | 86 | 147 | 5.2 | 9.6 | 0.00 | 0.00 | 0.00 | 69 | 1004.0 |
| 20260505214351 | 87 | 128 | 3.5 | 7.8 | 0.00 | 0.00 | 0.00 | 69 | 1004.2 |
| 20260505213359 | 86 | 74 | 4.3 | 9.6 | 0.00 | 0.00 | 0.00 | 70 | 1004.1 |
| 20260505212344 | 86 | 141 | 5.2 | 10.4 | 0.00 | 0.00 | 0.00 | 69 | 1004.1 |
| 20260505211321 | 86 | 119 | 5.2 | 10.4 | 0.00 | 0.00 | 0.00 | 70 | 1004.2 |
| 20260505210321 | 86 | 104 | 5.2 | 9.6 | 0.00 | 0.00 | 0.00 | 70 | 1004.4 |
| 20260505205311 | 86 | 134 | 4.3 | 10.4 | 0.00 | 0.00 | 0.00 | 71 | 1004.8 |
| 20260505204322 | 86 | 98 | 5.2 | 12.2 | 0.00 | 0.00 | 0.00 | 70 | 1004.7 |
| 20260505203313 | 85 | 114 | 4.3 | 12.2 | 0.00 | 0.00 | 0.00 | 71 | 1004.8 |
| 20260505202258 | 85 | 84 | 6.1 | 11.3 | 0.00 | 0.00 | 0.00 | 70 | 1004.9 |
| 20260505201313 | 85 | 115 | 5.2 | 13.0 | 0.00 | 0.00 | 0.00 | 71 | 1005.0 |
| 20260505200322 | 84 | 148 | 4.3 | 13.0 | 0.00 | 0.00 | 0.00 | 73 | 1005.5 |
| 20260505195329 | 84 | 166 | 5.2 | 11.3 | 0.00 | 0.00 | 0.00 | 72 | 1005.4 |
| 20260505194354 | 84 | 92 | 4.3 | 11.3 | 0.00 | 0.00 | 0.00 | 72 | 1005.4 |
| 20260505193404 | 84 | 107 | 5.2 | 11.3 | 0.00 | 0.00 | 0.00 | 73 | 1005.5 |
| 20260505192408 | 83 | 163 | 5.2 | 11.3 | 0.00 | 0.00 | 0.00 | 73 | 1005.6 |
| 20260505191421 | 83 | 96 | 5.2 | 11.3 | 0.00 | 0.00 | 0.00 | 73 | 1005.7 |
| 20260505190348 | 83 | 146 | 5.2 | 11.3 | 0.00 | 0.00 | 0.00 | 75 | 1005.9 |
| 20260505184227 | 81 | 112 | 6.1 | 16.5 | 0.00 | 0.00 | 0.00 | 77 | 1006.2 |
| 20260505183212 | 80 | 163 | 7.8 | 16.5 | 0.00 | 0.00 | 0.00 | 76 | 1006.3 |
| 20260505182215 | 80 | 158 | 7.0 | 14.8 | 0.00 | 0.00 | 0.00 | 78 | 1006.5 |
| 20260505181213 | 79 | 110 | 7.0 | 14.8 | 0.00 | 0.00 | 0.00 | 78 | 1006.7 |
| 20260505180222 | 78 | 122 | 6.1 | 15.6 | 0.00 | 0.00 | 0.00 | 80 | 1006.9 |
| 20260505175246 | 78 | 184 | 6.1 | 15.6 | 0.00 | 0.00 | 0.00 | 80 | 1006.9 |
| 20260505174221 | 78 | 138 | 6.1 | 13.0 | 0.00 | 0.00 | 0.00 | 81 | 1007.0 |
| 20260505173233 | 78 | 189 | 7.0 | 15.6 | 0.00 | 0.00 | 0.00 | 81 | 1007.2 |
| 20260505172213 | 76 | 189 | 7.8 | 15.6 | 0.00 | 0.00 | 0.00 | 83 | 1007.2 |
| 20260505171229 | 76 | 187 | 7.8 | 14.8 | 0.00 | 0.00 | 0.00 | 84 | 1007.3 |
| 20260505170157 | 75 | 155 | 7.0 | 15.6 | 0.00 | 0.00 | 0.00 | 85 | 1007.2 |
| 20260505165124 | 74 | 138 | 8.7 | 15.6 | 0.00 | 0.00 | 0.00 | 86 | 1007.3 |
| 20260505164104 | 74 | 187 | 7.0 | 15.6 | 0.00 | 0.00 | 0.00 | 87 | 1007.3 |
| 20260505163049 | 74 | 175 | 7.8 | 15.6 | 0.00 | 0.00 | 0.00 | 87 | 1007.4 |
| 20260505162050 | 74 | 182 | 6.1 | 14.8 | 0.00 | 0.00 | 0.00 | 87 | 1007.5 |
| 20260505161115 | 73 | 145 | 6.1 | 14.8 | 0.00 | 0.00 | 0.00 | 88 | 1007.4 |
| 20260505152946 | 73 | 119 | 4.3 | 9.6 | 0.00 | 0.00 | 0.00 | 89 | 1007.1 |
| 20260505151921 | 72 | 126 | 4.3 | 8.7 | 0.00 | 0.00 | 0.00 | 89 | 1007.3 |
| 20260505124616 | 71 | 180 | 4.3 | 10.4 | 0.00 | 0.00 | 0.00 | 90 | 1006.1 |
| 20260505123602 | 70 | 180 | 3.5 | 9.6 | 0.00 | 0.00 | 0.00 | 91 | 1006.1 |
| 20260505122604 | 70 | 119 | 4.3 | 9.6 | 0.00 | 0.00 | 0.00 | 90 | 1006.0 |
| 20260505121540 | 70 | 167 | 4.3 | 9.6 | 0.00 | 0.00 | 0.00 | 90 | 1005.6 |
| 20260505120557 | 70 | 147 | 3.5 | 8.7 | 0.00 | 0.00 | 0.00 | 91 | 1005.5 |
| 20260505115543 | 70 | 114 | 3.5 | 8.7 | 0.00 | 0.00 | 0.00 | 90 | 1005.4 |
| 20260505114512 | 70 | 148 | 3.5 | 8.7 | 0.00 | 0.00 | 0.00 | 90 | 1005.3 |
| 20260505113533 | 70 | 194 | 3.5 | 8.7 | 0.00 | 0.00 | 0.00 | 90 | 1005.3 |
| 20260505112524 | 70 | 175 | 3.5 | 8.7 | 0.00 | 0.00 | 0.00 | 90 | 1005.3 |
| 20260505111457 | 70 | 140 | 4.3 | 10.4 | 0.00 | 0.00 | 0.00 | 90 | 1005.4 |
| 20260505110446 | 70 | 129 | 4.3 | 10.4 | 0.00 | 0.00 | 0.00 | 90 | 1005.4 |
| 20260505101503 | 70 | 155 | 4.3 | 12.2 | 0.00 | 0.00 | 0.00 | 90 | 1005.5 |
| 20260505100509 | 70 | 163 | 4.3 | 12.2 | 0.00 | 0.00 | 0.00 | 90 | 1005.6 |
| 20260505095443 | 70 | 113 | 5.2 | 11.3 | 0.00 | 0.00 | 0.00 | 90 | 1005.6 |
| 20260505094434 | 70 | 164 | 4.3 | 9.6 | 0.00 | 0.00 | 0.00 | 90 | 1005.8 |
| 20260505093439 | 70 | 138 | 5.2 | 10.4 | 0.00 | 0.00 | 0.00 | 89 | 1005.8 |
| 20260505092430 | 70 | 202 | 4.3 | 14.8 | 0.00 | 0.00 | 0.00 | 89 | 1005.8 |
| 20260505091414 | 70 | 142 | 4.3 | 14.8 | 0.00 | 0.00 | 0.00 | 89 | 1005.8 |
| 20260505090343 | 70 | 163 | 5.2 | 14.8 | 0.00 | 0.00 | 0.00 | 89 | 1006.0 |
| 20260505085323 | 70 | 124 | 4.3 | 13.0 | 0.00 | 0.00 | 0.00 | 89 | 1006.1 |
| 20260505084327 | 70 | 152 | 5.2 | 13.0 | 0.00 | 0.00 | 0.00 | 89 | 1006.2 |
| 20260505083310 | 70 | 153 | 4.3 | 11.3 | 0.00 | 0.00 | 0.00 | 89 | 1006.2 |
| 20260505082319 | 70 | 157 | 4.3 | 11.3 | 0.00 | 0.00 | 0.00 | 89 | 1006.1 |
| 20260505081328 | 71 | 146 | 4.3 | 10.4 | 0.00 | 0.00 | 0.00 | 89 | 1006.2 |
| 20260505080323 | 71 | 126 | 4.3 | 12.2 | 0.00 | 0.00 | 0.00 | 89 | 1006.4 |
| 20260505075304 | 71 | 163 | 5.2 | 12.2 | 0.00 | 0.00 | 0.00 | 89 | 1006.4 |
| 20260505074239 | 71 | 157 | 6.1 | 10.4 | 0.00 | 0.00 | 0.00 | 89 | 1006.4 |
| 20260505073234 | 71 | 111 | 5.2 | 11.3 | 0.00 | 0.00 | 0.00 | 89 | 1006.7 |
| 20260505072234 | 71 | 115 | 5.2 | 15.6 | 0.00 | 0.00 | 0.00 | 89 | 1006.8 |
| 20260505071212 | 71 | 115 | 5.2 | 15.6 | 0.00 | 0.00 | 0.00 | 88 | 1006.8 |
| 20260505070212 | 71 | 121 | 6.1 | 11.3 | 0.00 | 0.00 | 0.00 | 88 | 1006.9 |
| 20260505065145 | 71 | 114 | 5.2 | 14.8 | 0.00 | 0.00 | 0.00 | 88 | 1007.0 |
| 20260505064144 | 71 | 85 | 7.0 | 14.8 | 0.00 | 0.00 | 0.00 | 88 | 1007.2 |
| 20260505063202 | 71 | 103 | 5.2 | 14.8 | 0.00 | 0.00 | 0.00 | 88 | 1007.2 |
| 20260505062216 | 71 | 153 | 5.2 | 11.3 | 0.00 | 0.00 | 0.00 | 88 | 1007.0 |
| 20260505061232 | 71 | 147 | 6.1 | 13.0 | 0.00 | 0.00 | 0.00 | 88 | 1007.3 |
| 20260505060201 | 71 | 121 | 5.2 | 13.0 | 0.00 | 0.00 | 0.00 | 88 | 1007.5 |
| 20260505055158 | 71 | 131 | 5.2 | 11.3 | 0.00 | 0.00 | 0.00 | 88 | 1007.4 |
| 20260505054215 | 71 | 167 | 4.3 | 12.2 | 0.00 | 0.00 | 0.00 | 88 | 1007.5 |
| 20260505053203 | 71 | 117 | 5.2 | 12.2 | 0.00 | 0.00 | 0.00 | 88 | 1007.6 |
| 20260505052145 | 71 | 154 | 5.2 | 13.0 | 0.00 | 0.00 | 0.00 | 88 | 1007.4 |
| 20260505051144 | 71 | 139 | 5.2 | 13.0 | 0.00 | 0.00 | 0.00 | 87 | 1007.5 |
| 20260505050156 | 71 | 126 | 5.2 | 11.3 | 0.00 | 0.00 | 0.00 | 87 | 1007.4 |